Voltar ao catálogo

STARLINK-5065

AtivoComunicaçõesVLEO
NORAD 55641·PAYLOAD·🇺🇸 United States

Lançado Feb 17, 2023 de Vandenberg Space Force Base

Loading…

Próximas Passagens (próximas 24 horas)

TLE

AtualizadoSource: CelesTrak SupGP

Época: Sep 15, 2026, 01:53 UTC

1 55641C 23021P   26258.07895833 -.00052131  00000+0 -43693-2 0  2583
2 55641  70.0009  67.0719 0002706 267.8364 202.1632 14.98353254    11

Acompanhe STARLINK-5065 em tempo real com AllMySat

Download on the App Store